TimeCDT,TemperatureF,Dew PointF,Humidity,Sea Level PressureIn,VisibilityMPH,Wind Direction,Wind SpeedMPH,Gust SpeedMPH,PrecipitationIn,Events,Conditions,WindDirDegrees,DateUTC
12:15 AM,76.6,76.5,99,30.03,10.0,SE,11.5,17.3,N/A,,Overcast,130,2013-04-17 05:15:00
12:35 AM,76.5,76.5,100,30.03,10.0,SE,10.4,18.4,N/A,,Overcast,130,2013-04-17 05:35:00
12:55 AM,76.5,76.3,99,30.03,10.0,SE,9.2,16.1,N/A,,Overcast,130,2013-04-17 05:55:00
1:15 AM,76.3,76.1,99,30.02,10.0,ESE,11.5,-,N/A,,Overcast,120,2013-04-17 06:15:00
1:35 AM,76.5,76.1,99,30.01,10.0,SE,11.5,18.4,N/A,,Overcast,130,2013-04-17 06:35:00
1:55 AM,76.3,76.1,99,30.00,10.0,SE,11.5,17.3,N/A,,Overcast,130,2013-04-17 06:55:00
2:15 AM,76.3,76.1,99,30.00,10.0,ESE,8.1,19.6,N/A,,Overcast,120,2013-04-17 07:15:00
2:35 AM,76.3,76.1,99,29.99,10.0,SE,11.5,21.9,N/A,,Overcast,130,2013-04-17 07:35:00
2:55 AM,76.1,76.1,100,29.99,10.0,SE,10.4,18.4,N/A,,Overcast,130,2013-04-17 07:55:00
3:15 AM,76.1,76.1,100,29.98,10.0,ESE,9.2,16.1,N/A,,Overcast,120,2013-04-17 08:15:00
3:35 AM,76.1,76.1,100,29.98,10.0,SE,11.5,-,N/A,,Overcast,140,2013-04-17 08:35:00
3:55 AM,76.1,76.1,100,29.98,10.0,ESE,11.5,17.3,N/A,,Overcast,120,2013-04-17 08:55:00
4:15 AM,76.1,76.1,100,29.98,10.0,SE,8.1,16.1,N/A,,Overcast,130,2013-04-17 09:15:00
4:55 AM,75.6,75.6,100,29.96,10.0,ESE,11.5,19.6,N/A,,Overcast,110,2013-04-17 09:55:00
5:15 AM,75.4,75.4,100,29.98,10.0,ESE,5.8,-,N/A,,Overcast,120,2013-04-17 10:15:00
5:35 AM,75.2,75.2,100,29.99,10.0,Calm,Calm,-,N/A,,Overcast,0,2013-04-17 10:35:00
5:55 AM,75.2,75.2,100,29.98,10.0,ESE,5.8,-,N/A,,Scattered Clouds,120,2013-04-17 10:55:00
6:15 AM,75.2,74.3,97,30.00,10.0,ESE,5.8,-,N/A,,Clear,120,2013-04-17 11:15:00
6:35 AM,75.2,73.9,96,30.00,10.0,ESE,4.6,-,N/A,,Clear,120,2013-04-17 11:35:00
6:55 AM,74.5,73.8,98,30.02,10.0,Calm,Calm,-,N/A,,Clear,0,2013-04-17 11:55:00
7:15 AM,73.8,73.8,100,30.03,10.0,Calm,Calm,-,N/A,,Clear,0,2013-04-17 12:15:00
7:35 AM,74.5,74.5,100,30.03,10.0,Calm,Calm,-,N/A,,Clear,0,2013-04-17 12:35:00
7:55 AM,75.7,74.5,96,30.03,10.0,ESE,4.6,-,N/A,,Clear,110,2013-04-17 12:55:00
8:15 AM,76.5,74.7,94,30.03,10.0,ESE,3.5,-,N/A,,Clear,110,2013-04-17 13:15:00
8:35 AM,77.0,74.5,92,30.03,10.0,ESE,8.1,-,N/A,,Scattered Clouds,120,2013-04-17 13:35:00
9:15 AM,79.7,67.3,66,30.03,10.0,SE,11.5,-,N/A,,Clear,140,2013-04-17 14:15:00
9:35 AM,80.2,66.7,63,30.03,10.0,SE,9.2,19.6,N/A,,Clear,130,2013-04-17 14:35:00
9:55 AM,80.8,67.6,64,30.03,10.0,SE,13.8,19.6,N/A,,Scattered Clouds,130,2013-04-17 14:55:00
10:15 AM,81.0,68.2,65,30.04,10.0,SE,15.0,20.7,N/A,,Mostly Cloudy,140,2013-04-17 15:15:00
10:35 AM,81.0,68.7,66,30.03,10.0,SSE,15.0,21.9,N/A,,Overcast,150,2013-04-17 15:35:00
10:55 AM,81.0,68.9,67,30.03,10.0,SE,16.1,21.9,N/A,,Overcast,130,2013-04-17 15:55:00
11:15 AM,81.1,68.7,66,30.03,10.0,SSE,18.4,25.3,N/A,,Overcast,150,2013-04-17 16:15:00
11:35 AM,79.9,69.1,69,30.03,10.0,SSE,15.0,24.2,N/A,,Overcast,150,2013-04-17 16:35:00
11:55 AM,80.8,69.6,69,30.03,10.0,SE,11.5,25.3,N/A,,Overcast,130,2013-04-17 16:55:00
12:15 PM,81.7,68.7,65,30.02,10.0,SE,13.8,25.3,N/A,,Overcast,140,2013-04-17 17:15:00
12:35 PM,81.7,68.9,65,30.02,10.0,SE,13.8,24.2,N/A,,Overcast,130,2013-04-17 17:35:00
12:55 PM,81.5,68.5,65,30.01,10.0,SE,17.3,25.3,N/A,,Overcast,130,2013-04-17 17:55:00
1:15 PM,82.4,68.9,64,30.00,10.0,SE,19.6,25.3,N/A,,Overcast,130,2013-04-17 18:15:00
1:35 PM,82.9,69.3,63,29.99,10.0,SE,18.4,26.5,N/A,,Overcast,130,2013-04-17 18:35:00
1:55 PM,83.5,70.2,64,29.99,10.0,SE,15.0,21.9,N/A,,Overcast,130,2013-04-17 18:55:00
2:15 PM,82.8,69.8,65,29.99,10.0,SE,17.3,23.0,N/A,,Overcast,140,2013-04-17 19:15:00
2:35 PM,83.5,69.1,62,29.98,10.0,SE,20.7,28.8,N/A,,Overcast,140,2013-04-17 19:35:00
2:55 PM,84.0,68.9,60,29.97,10.0,SE,17.3,24.2,N/A,,Mostly Cloudy,140,2013-04-17 19:55:00
3:35 PM,83.5,69.8,63,29.97,10.0,SE,18.4,26.5,N/A,,Mostly Cloudy,140,2013-04-17 20:35:00
3:55 PM,81.9,68.9,65,29.96,10.0,SE,19.6,25.3,N/A,,Overcast,130,2013-04-17 20:55:00
4:15 PM,82.2,68.9,64,29.95,10.0,SSE,17.3,24.2,N/A,,Overcast,150,2013-04-17 21:15:00
4:35 PM,82.9,69.1,63,29.94,10.0,SE,18.4,24.2,N/A,,Mostly Cloudy,140,2013-04-17 21:35:00
4:55 PM,82.9,68.9,62,29.93,10.0,SE,18.4,27.6,N/A,,Mostly Cloudy,140,2013-04-17 21:55:00
5:15 PM,82.6,68.5,62,29.92,10.0,SE,19.6,26.5,N/A,,Mostly Cloudy,140,2013-04-17 22:15:00
5:35 PM,81.9,68.7,64,29.92,10.0,SE,18.4,24.2,N/A,,Mostly Cloudy,140,2013-04-17 22:35:00
5:55 PM,81.7,68.5,64,29.91,10.0,SE,15.0,27.6,N/A,,Mostly Cloudy,140,2013-04-17 22:55:00
6:15 PM,80.8,69.3,68,29.91,10.0,SE,13.8,23.0,N/A,,Overcast,130,2013-04-17 23:15:00
6:35 PM,79.7,69.4,71,29.91,10.0,SE,19.6,24.2,N/A,,Overcast,130,2013-04-17 23:35:00
6:55 PM,79.2,69.8,73,29.91,10.0,SE,15.0,20.7,N/A,,Overcast,140,2013-04-17 23:55:00
7:15 PM,79.2,69.4,72,29.91,10.0,SE,17.3,24.2,N/A,,Overcast,130,2013-04-18 00:15:00
7:35 PM,78.6,70.0,75,29.91,10.0,SE,12.7,20.7,N/A,,Overcast,140,2013-04-18 00:35:00
7:55 PM,78.1,70.3,77,29.91,10.0,SE,13.8,25.3,N/A,,Overcast,140,2013-04-18 00:55:00
8:15 PM,77.9,70.7,78,29.91,10.0,SE,17.3,23.0,N/A,,Overcast,130,2013-04-18 01:15:00
8:35 PM,77.9,70.7,78,29.91,10.0,SE,12.7,21.9,N/A,,Overcast,130,2013-04-18 01:35:00
8:55 PM,77.9,70.7,78,29.91,10.0,SE,16.1,23.0,N/A,,Overcast,130,2013-04-18 01:55:00
9:15 PM,77.9,70.5,78,29.91,10.0,SE,16.1,23.0,N/A,,Overcast,130,2013-04-18 02:15:00
9:35 PM,77.4,70.2,78,29.90,10.0,SE,16.1,28.8,N/A,,Overcast,140,2013-04-18 02:35:00
9:55 PM,77.4,70.2,78,29.91,10.0,SE,20.7,29.9,N/A,,Overcast,140,2013-04-18 02:55:00
10:15 PM,77.0,69.8,78,29.90,10.0,SE,15.0,29.9,N/A,,Overcast,140,2013-04-18 03:15:00
10:35 PM,76.6,69.8,79,29.89,10.0,SE,17.3,26.5,N/A,,Overcast,130,2013-04-18 03:35:00
10:55 PM,76.5,69.4,79,29.90,10.0,SE,15.0,27.6,N/A,,Overcast,130,2013-04-18 03:55:00
11:15 PM,76.5,69.4,79,29.90,10.0,SE,12.7,23.0,N/A,,Overcast,130,2013-04-18 04:15:00
11:35 PM,76.6,69.3,78,29.90,10.0,SE,18.4,31.1,N/A,,Overcast,140,2013-04-18 04:35:00
11:55 PM,76.5,69.8,80,29.90,10.0,SE,16.1,21.9,N/A,,Overcast,140,2013-04-18 04:55:00